This is the latest recevied weather packets stored in our database for station/object EW8324. If no packets are shown the sender has not sent any weather packets the latest 10 day(s).
| Time | Temp. | Humidity | Pressure | Rain* | Wind** | Luminosity | Snow |
|---|---|---|---|---|---|---|---|
| 1777856672 | 22.78° C | 48% | 1013 hPa | 0.25 mm | - | 0 W/m² | - |
| 1777856376 | 23.33° C | 48% | 1013 hPa | 0.25 mm | - | 0 W/m² | - |
| 1777856135 | 23.33° C | 47% | 1013 hPa | 0.25 mm | - | 0 W/m² | - |
| 1777855777 | 23.33° C | 47% | 1013.1 hPa | 0.25 mm | - | 5 W/m² | - |
| 1777855474 | 23.33° C | 47% | 1013.1 hPa | 0.25 mm | - | 7 W/m² | - |
| 1777855174 | 23.89° C | 46% | 1013.1 hPa | 0 mm | - | 7 W/m² | - |
| 1777854873 | 23.89° C | 46% | 1013.1 hPa | 0 mm | - | 7 W/m² | - |
| 1777854576 | 23.89° C | 46% | 1013.1 hPa | 0 mm | - | 7 W/m² | - |
| 1777854272 | 24.44° C | 45% | 1013.1 hPa | 0 mm | - | 12 W/m² | - |
| 1777853978 | 24.44° C | 44% | 1012.9 hPa | 0 mm | - | 18 W/m² | - |
| 1777853735 | 24.44° C | 44% | 1013 hPa | 0 mm | - | 48 W/m² | - |
| 1777853375 | 24.44° C | 43% | 1013.1 hPa | 0 mm | - | 69 W/m² | - |
| 1777852777 | 24.44° C | 43% | 1013.2 hPa | 0.25 mm | - | 32 W/m² | - |
| 1777852473 | 25° C | 43% | 1013.2 hPa | 0.25 mm | - | 44 W/m² | - |
| 1777852174 | 25° C | 43% | 1013.3 hPa | 0.25 mm | - | - | - |
| 1777851872 | 25° C | 42% | 1013.1 hPa | 0.25 mm | - | 74 W/m² | - |
| 1777851574 | 25° C | 42% | 1013.2 hPa | 0.25 mm | - | 74 W/m² | - |
| 1777851334 | 25° C | 42% | 1013.3 hPa | 0.25 mm | - | 32 W/m² | - |
| 1777850974 | 25.56° C | 41% | 1013.2 hPa | 0.25 mm | - | 32 W/m² | - |
| 1777850671 | 25.56° C | 40% | 1013.3 hPa | 0.25 mm | - | 49 W/m² | - |
| 1777850375 | 25.56° C | 40% | 1013.4 hPa | 0.25 mm | - | 48 W/m² | - |
| 1777850134 | 25.56° C | 40% | 1013.3 hPa | 0.25 mm | - | 76 W/m² | - |
| 1777849776 | 25.56° C | 40% | 1013.3 hPa | 0.25 mm | - | 83 W/m² | - |
| 1777849472 | 26.11° C | 40% | 1013.3 hPa | 0.25 mm | - | 60 W/m² | - |
| 1777849237 | 26.11° C | 41% | 1013.4 hPa | 0.25 mm | - | 114 W/m² | - |
* Rain latest hour (hover to see other rain measurements)
** Current wind speed in m/s (hover to see current wind gust speed)